カタログに戻る

ONEWEB-0200

運用中通信PO
NORAD 48244·PAYLOAD·🇬🇧 United Kingdom

打ち上げ Apr 25, 2021 から Vostochny Cosmodrome

Loading…

次のパス (今後24時間)

TLE

最新Source: CelesTrak SupGP

元期: Sep 14, 2026, 13:59 UTC

1 48244C 21031AL  26257.58312917 -.00000128  00000+0 -34637-3 0  2572
2 48244  87.8909 271.8729 0001692  97.0699   2.2269 13.14507499    14

AllMySatでONEWEB-0200をリアルタイム追跡

Download on the App Store